Time,TemperatureF,DewpointF,PressureIn,WindDirection,WindDirectionDegrees,WindSpeedMPH,WindSpeedGustMPH,Humidity,HourlyPrecipIn,Conditions,Clouds,dailyrainin,SolarRadiationWatts/m^2,SoftwareType,DateUTC
2013-02-16 00:00:00,12.0,6.0,-100.00,NNW,337,6.0,-999.0,76,-99.99,,,-99.99,0.000000,,2013-02-16 06:00:00,
2013-02-16 00:42:00,12.0,6.0,-100.00,NNW,337,6.0,-999.0,76,-99.99,,,-99.99,0.000000,,2013-02-16 06:42:00,
2013-02-16 00:52:00,12.0,6.0,-100.00,NNW,337,6.0,-999.0,76,-99.99,,,-99.99,0.000000,,2013-02-16 06:52:00,
2013-02-16 03:00:00,7.0,1.0,-100.00,West,270,4.0,-999.0,74,-99.99,,,-99.99,0.000000,,2013-02-16 09:00:00,
2013-02-16 03:42:00,7.0,1.0,-100.00,West,270,4.0,-999.0,74,-99.99,,,-99.99,0.000000,,2013-02-16 09:42:00,
2013-02-16 03:52:00,7.0,1.0,-100.00,West,270,4.0,-999.0,74,-99.99,,,-99.99,0.000000,,2013-02-16 09:52:00,
2013-02-16 09:00:00,3.0,-2.0,-100.00,WNW,292,4.0,-999.0,80,-99.99,,,-99.99,219.240005,,2013-02-16 15:00:00,
2013-02-16 09:42:00,3.0,-2.0,-100.00,WNW,292,4.0,-999.0,80,-99.99,,,-99.99,219.240005,,2013-02-16 15:42:00,
2013-02-16 09:52:00,3.0,-2.0,-100.00,WNW,292,4.0,-999.0,80,-99.99,,,-99.99,219.240005,,2013-02-16 15:52:00,
2013-02-16 12:00:00,14.0,1.0,-100.00,NNW,337,8.0,-999.0,55,-99.99,,,-99.99,578.840027,,2013-02-16 18:00:00,
2013-02-16 12:42:00,14.0,1.0,-100.00,NNW,337,8.0,-999.0,55,-99.99,,,-99.99,578.840027,,2013-02-16 18:42:00,
2013-02-16 12:52:00,14.0,1.0,-100.00,NNW,337,8.0,-999.0,55,-99.99,,,-99.99,578.840027,,2013-02-16 18:52:00,
2013-02-16 15:00:00,18.0,1.0,-100.00,WNW,292,5.0,-999.0,46,-99.99,,,-99.99,415.279999,,2013-02-16 21:00:00,
2013-02-16 15:42:00,18.0,1.0,-100.00,WNW,292,5.0,-999.0,46,-99.99,,,-99.99,415.279999,,2013-02-16 21:42:00,
2013-02-16 15:52:00,18.0,1.0,-100.00,WNW,292,5.0,-999.0,46,-99.99,,,-99.99,415.279999,,2013-02-16 21:52:00,
2013-02-16 18:42:00,5.0,-4.0,-100.00,West,270,1.0,-999.0,66,-99.99,,,-99.99,3.480000,,2013-02-17 00:42:00,
2013-02-16 18:52:00,5.0,-4.0,-100.00,West,270,1.0,-999.0,66,-99.99,,,-99.99,3.480000,,2013-02-17 00:52:00,
2013-02-16 21:00:00,8.0,-2.0,-100.00,NNW,337,4.0,-999.0,61,-99.99,,,-99.99,0.000000,,2013-02-17 03:00:00,
2013-02-16 21:42:00,8.0,-2.0,-100.00,NNW,337,4.0,-999.0,61,-99.99,,,-99.99,0.000000,,2013-02-17 03:42:00,
2013-02-16 21:52:00,8.0,-2.0,-100.00,NNW,337,4.0,-999.0,61,-99.99,,,-99.99,0.000000,,2013-02-17 03:52:00,